SCP
0 0 0 0 0 0 0 0 0 0 0 0 1 1 1 1 0 0 0 1 1 1 1 1 1 1 1 1 1 1 1 1 1 0 0 0 0 0 0 0 0 0 0 0 0 0 0 0 0
0 0 0 0 0 0 0 0 0 0 0 1 1 1 1 1 1 0 1 1 1 1 1 1 1 1 1 1 1 1 1 1 1 1 0 0 0 0 0 0 0 0 0 0 0 0 0 0 0
0 0 0 0 0 0 0 0 0 1 1 1 2 1 1 1 1 1 1 1 1 1 1 1 1 1 1 1 1 1 1 1 1 1 0 0 0 0 0 0 0 0 0 0 0 0 0 0 0
0 0 0 0 0 0 0 0 1 1 2 2 2 2 1 1 1 1 2 2 2 2 1 1 1 1 1 1 1 1 1 1 1 1 1 1 0 0 0 0 0 0 0 0 0 0 0 0 0
0 0 0 0 0 0 0 1 1 2 2 3 3 2 1 1 1 2 2 2 2 2 2 2 2 2 1 1 1 1 1 1 1 1 1 1 1 0 0 0 0 0 0 0 0 0 0 0 0
0 0 0 0 0 0 0 1 2 2 3 3 3 2 1 1 1 2 2 2 2 2 2 2 2 2 1 1 1 1 1 1 1 1 1 1 1 0 0 0 0 0 0 0 0 0 0 0 0
0 0 0 0 0 0 1 1 2 2 3 3 2 2 2 1 2 2 2 2 2 2 2 2 2 2 1 1 1 1 1 1 1 0 0 1 0 0 0 0 0 0 0 0 0 0 0 0 0
0 0 0 0 0 0 1 1 2 2 3 3 2 2 2 2 2 3 3 2 2 2 2 2 2 2 2 2 1 1 1 1 1 1 0 0 0 0 0 0 0 0 0 0 0 0 0 0 0
0 0 0 0 0 0 1 2 2 3 3 3 3 2 3 3 4 4 4 3 3 3 3 3 3 3 2 2 2 2 2 1 1 1 1 1 0 0 0 0 0 0 0 0 0 0 0 0 0
0 0 0 0 0 0 1 2 2 3 3 4 4 4 4 5 5 5 4 3 3 3 3 3 3 3 3 2 2 2 2 1 1 1 1 1 0 0 0 0 0 0 0 0 0 0 0 0 0
0 0 0 0 0 1 1 2 2 3 3 4 4 5 5 6 6 5 4 3 3 3 3 3 3 3 3 3 2 2 1 1 1 1 1 0 0 0 0 0 0 0 0 0 0 0 0 0 0
0 0 0 0 0 1 1 2 2 3 3 3 4 5 6 7 7 5 4 3 3 4 4 3 3 3 3 3 2 2 2 1 1 1 0 0 0 0 0 0 0 0 0 0 0 0 0 0 0
0 0 0 0 0 0 1 1 2 3 3 4 4 5 7 8 7 5 4 4 4 4 4 4 4 3 3 3 3 2 2 1 1 1 0 0 0 0 0 0 0 0 0 0 0 0 0 0 0
0 0 0 0 0 0 1 1 2 3 4 5 5 5 6 7 7 5 4 4 4 4 3 3 3 3 3 2 3 3 2 2 1 1 1 0 0 0 0 0 0 0 0 0 0 0 0 0 0
0 0 0 0 0 0 1 1 1 3 4 5 4 4 5 6 5 4 4 4 4 3 3 2 2 2 2 2 3 3 3 2 2 1 1 0 0 0 0 0 0 0 0 0 0 0 0 0 0
0 0 0 0 0 0 0 1 2 2 3 4 4 3 4 4 3 3 3 3 3 2 2 2 2 2 2 2 3 2 2 2 2 1 1 1 0 0 0 0 0 0 0 0 0 0 0 0 0
0 0 0 0 0 0 0 1 2 2 3 3 3 3 3 3 2 2 2 2 2 2 2 2 2 2 2 2 3 2 2 1 1 2 1 1 1 0 0 0 0 0 0 0 0 0 0 0 0
0 0 0 0 0 0 1 1 2 2 3 3 3 3 2 2 2 2 2 2 2 2 2 2 2 2 2 2 2 2 1 1 1 1 1 1 1 0 0 0 0 0 0 0 0 0 0 0 0
0 0 0 0 0 0 1 1 2 2 2 3 4 3 2 1 1 1 2 2 2 2 2 2 2 2 2 2 2 2 2 1 1 1 1 1 0 0 0 0 0 0 0 0 0 0 0 0 0
0 0 0 0 0 0 1 1 1 2 2 3 4 3 2 1 1 1 2 2 2 2 2 2 2 2 2 2 2 2 2 2 1 1 1 0 0 0 0 0 0 0 0 0 0 0 0 0 0
0 0 0 0 0 0 0 0 1 1 2 2 3 3 2 1 1 1 1 2 2 2 1 1 1 2 2 3 2 1 1 1 1 0 0 0 0 0 0 0 0 0 0 0 0 0 0 0 0
0 0 0 0 0 0 0 0 0 1 1 1 2 2 1 1 1 1 1 2 2 2 1 1 1 2 2 2 2 1 1 1 0 0 0 0 0 0 0 0 0 0 0 0 0 0 0 0 0
0 0 0 0 0 0 0 0 0 0 1 1 1 1 1 1 1 1 1 1 1 1 1 1 1 1 1 1 1 1 1 1 0 0 0 0 0 0 0 0 0 0 0 0 0 0 0 0 0
0 0 0 0 0 0 0 0 0 0 0 0 1 1 1 1 1 1 1 1 1 1 1 1 1 1 1 1 1 0 0 0 0 0 0 0 0 0 0 0 0 0 0 0 0 0 0 0 0
0 0 0 0 0 0 0 0 0 0 0 0 1 1 1 0 0 0 1 1 1 1 1 1 1 1 0 0 0 0 0 0 0 0 0 0 0 0 0 0 0 0 0 0 0 0 0 0 0
0 0 0 0 0 0 0 0 0 0 0 0 1 1 1 0 0 0 0 1 1 1 1 1 1 0 0 0 0 0 0 0 0 0 0 0 0 0 0 0 0 0 0 0 0 0 0 0 0
0 0 0 0 0 0 0 0 0 0 0 0 1 1 1 0 0 0 0 1 1 1 1 1 1 0 0 0 0 0 0 0 0 0 0 0 0 0 0 0 0 0 0 0 0 0 0 0 0
0 0 0 0 0 0 0 0 0 0 0 0 0 1 0 0 0 0 0 1 1 1 1 1 1 1 0 0 0 0 0 0 0 0 0 0 0 0 0 0 0 0 0 0 0 0 0 0 0
0 0 0 0 0 0 0 0 0 0 0 0 0 0 0 0 0 0 0 0 1 1 1 1 1 1 0 0 0 0 0 0 0 0 0 0 0 0 0 0 0 0 0 0 0 0 0 0 0
0 0 0 0 0 0 0 0 0 0 0 0 0 0 0 0 0 0 0 0 1 1 1 1 1 1 0 0 0 0 0 0 0 0 0 0 0 0 0 0 0 0 0 0 0 0 0 0 0
Wind_Speed
5 3 2 1 3 3 2 3 3 2 1 1 2 3 4 4 5 3 2 10 14 15 12 15 17 18 17 17 17 16 16 16 15 15 15 14 14 13 13 12 12 11 11 11 11 11 11 11 11
3 3 1 2 3 1 4 3 3 3 3 3 3 2 2 1 1 4 5 9 15 15 11 12 18 18 18 17 17 16 16 15 15 14 14 13 13 12 12 12 11 11 11 11 11 11 11 11 11
3 2 3 3 2 3 4 3 3 2 4 3 2 2 1 2 4 6 6 12 13 12 10 13 20 18 18 17 16 16 15 15 14 13 13 13 12 11 11 11 11 11 10 11 11 11 11 10 10
2 3 3 3 3 5 5 4 4 6 3 1 3 2 1 1 4 6 11 14 13 11 10 13 20 18 18 17 16 16 15 14 13 13 12 12 11 11 11 10 10 10 10 10 10 10 10 9 9
3 3 3 2 5 6 5 5 7 6 5 3 4 3 0 2 5 12 14 14 14 11 9 12 19 18 18 17 16 15 15 14 13 12 11 11 10 10 10 9 9 9 9 9 9 9 8 8 8
3 4 3 3 6 5 3 4 6 5 4 4 5 4 0 2 8 12 13 12 12 12 10 11 18 18 18 17 16 16 15 14 13 12 11 10 10 9 9 8 8 8 8 8 7 7 7 7 7
3 3 1 3 5 5 2 2 5 6 5 5 6 5 1 3 6 10 10 9 9 10 10 8 10 13 17 17 16 15 15 13 12 11 10 10 9 9 8 7 7 7 6 6 6 6 6 6 5
4 4 1 3 4 5 1 1 1 4 4 4 6 7 5 7 9 9 9 8 8 8 8 8 7 7 7 9 15 15 14 13 12 11 10 10 9 8 7 6 6 6 5 5 5 5 5 4 4
4 3 3 5 4 5 1 1 1 2 4 3 2 3 4 14 13 12 10 8 9 9 7 7 8 7 6 6 11 12 13 12 11 9 10 8 3 3 3 4 5 5 5 4 4 4 3 4 4
4 3 7 6 5 4 3 3 5 3 2 2 1 3 12 16 15 15 14 13 12 12 9 7 8 8 7 7 5 4 4 5 4 3 4 3 3 2 2 2 4 4 4 3 3 3 3 3 2
6 7 6 6 6 5 3 3 4 7 5 7 8 10 16 16 14 14 13 11 11 10 9 7 7 7 6 4 4 3 2 3 3 3 4 3 3 2 2 1 1 1 1 2 2 3 2 2 1
5 8 7 6 4 3 4 3 3 5 6 4 8 13 17 16 14 13 12 10 9 9 9 7 6 6 5 4 4 4 3 3 2 3 4 3 2 2 2 1 1 1 1 1 2 1 2 2 1
5 6 5 6 7 4 2 2 3 2 0 6 12 14 14 13 10 8 8 8 8 9 8 8 7 6 5 5 4 4 4 3 3 3 3 4 3 3 2 1 1 1 1 1 1 1 2 2 2
4 6 8 7 5 2 2 1 2 2 5 10 12 12 11 12 11 9 9 9 9 9 9 8 7 6 5 4 4 4 4 3 3 3 3 4 3 3 3 2 2 1 1 1 1 2 2 2 2
3 6 9 4 2 1 3 1 2 4 8 9 10 9 9 8 9 10 12 11 11 10 9 9 8 7 6 5 5 4 4 4 3 3 3 4 4 4 3 3 2 1 1 2 2 3 2 2 2
4 5 6 7 2 2 2 5 3 6 9 8 8 9 8 7 8 8 9 9 9 9 8 8 8 8 6 5 5 4 4 4 3 3 3 4 4 4 3 3 2 2 2 2 2 2 3 2 2
5 4 6 9 3 2 1 6 2 5 7 7 7 8 8 7 6 7 8 8 9 9 9 8 7 8 7 6 5 4 4 3 3 3 3 3 4 4 4 3 2 3 2 2 2 3 2 2 2
4 5 6 7 6 3 3 4 1 4 6 6 6 6 7 8 7 7 6 7 7 8 8 7 7 7 7 5 4 4 3 3 3 3 3 4 4 4 4 3 3 3 3 2 2 3 3 2 2
4 4 9 11 6 2 3 3 1 3 5 6 6 6 7 7 4 5 6 6 6 7 7 7 7 7 7 5 5 4 3 2 2 2 3 4 4 4 4 3 3 3 3 3 3 3 3 3 2
4 5 7 8 3 1 2 3 1 2 4 6 6 7 7 6 5 5 5 6 7 8 8 8 8 8 7 5 4 3 4 3 2 2 2 3 4 4 4 5 4 3 3 3 3 3 3 2 2
4 5 6 6 3 4 2 4 2 0 0 2 4 5 6 8 8 8 7 6 7 8 9 9 8 8 7 6 5 5 4 3 2 2 2 2 3 4 4 5 4 4 3 3 3 3 4 3 2
6 5 4 2 1 3 2 4 5 2 2 3 5 5 6 6 6 7 7 7 8 8 7 7 8 7 7 8 8 8 5 4 4 3 2 2 3 4 4 5 5 4 3 3 3 3 2 4 2
6 1 2 2 2 1 2 1 7 1 3 6 6 7 7 7 8 8 7 7 7 7 7 7 8 7 7 8 9 8 5 4 3 3 4 3 2 2 4 4 4 4 3 3 3 3 3 2 3
3 4 5 5 5 2 2 1 7 4 5 5 6 7 7 8 7 6 5 5 5 5 6 7 8 8 8 8 8 8 8 7 6 5 5 3 2 1 3 4 4 4 3 4 3 3 3 3 3
4 5 4 5 5 5 2 2 10 6 5 6 7 8 8 8 8 7 7 7 6 6 7 7 9 8 8 9 8 8 8 8 8 7 6 5 3 3 4 4 4 3 3 3 3 3 3 3 3
5 8 7 4 5 5 2 5 9 4 3 3 4 6 8 8 8 8 8 8 7 7 7 8 9 8 9 9 8 7 8 6 5 6 6 6 4 4 4 5 5 4 4 4 4 3 2 2 3
6 4 6 7 2 2 5 7 9 2 1 2 3 5 8 9 9 8 8 7 7 8 8 8 8 8 8 8 8 7 7 6 6 6 5 4 4 4 5 5 5 5 5 5 5 3 3 3 3
5 8 6 6 5 3 5 5 6 5 4 4 4 5 6 7 7 8 7 7 7 7 6 7 7 7 7 8 8 7 7 7 6 6 6 5 5 4 5 6 6 5 5 5 5 4 3 4 3
4 4 5 5 5 6 4 9 8 8 6 7 7 6 6 7 8 8 7 7 7 6 7 7 7 7 7 8 7 7 6 6 6 6 6 6 5 5 6 6 6 6 6 6 6 5 5 5 5
5 8 8 6 5 5 4 10 5 5 4 5 5 6 6 6 6 6 7 7 7 7 7 8 7 7 7 7 7 6 6 6 6 6 5 5 5 6 6 6 6 6 6 6 7 7 7 7 7
Wind_Direction
184 155 144 126 61 45 284 252 225 196 202 200 151 149 157 163 177 208 124 142 138 144 152 155 150 147 143 139 137 134 131 129 128 128 128 128 128 128 127 126 124 121 118 115 112 112 111 112 113
140 150 127 63 77 25 283 243 215 205 174 130 94 94 104 143 93 115 132 145 141 144 148 154 153 150 147 145 142 138 135 133 132 131 131 130 129 129 129 126 125 121 120 119 116 115 113 113 115
158 166 91 70 110 204 252 239 200 145 155 147 117 77 134 171 146 150 154 144 138 144 147 158 156 154 151 148 145 142 139 138 137 136 135 134 132 130 130 128 126 123 121 119 117 115 114 116 118
128 66 61 66 253 237 233 234 164 139 168 144 127 126 106 61 154 151 143 144 141 144 148 159 157 156 154 152 149 146 145 143 142 141 140 138 137 134 132 130 128 125 123 119 117 116 116 115 117
71 79 51 345 270 257 242 214 170 165 173 160 146 158 188 17 120 135 144 148 148 145 150 160 159 158 157 156 154 151 149 148 148 147 145 144 141 138 136 132 130 128 126 122 118 117 115 112 109
63 68 64 299 283 276 260 187 159 156 157 153 151 151 230 98 132 142 147 149 150 150 152 158 161 160 160 159 157 154 154 154 152 151 150 149 149 146 143 139 135 133 130 127 124 121 115 108 105
113 103 200 264 284 294 264 151 160 159 168 180 158 143 184 153 148 141 141 139 144 148 149 153 159 162 163 163 161 159 158 158 156 156 156 156 155 153 151 147 144 141 139 134 130 124 112 104 103
136 105 287 269 262 272 246 125 187 162 170 143 143 161 197 172 145 134 130 133 140 146 149 151 151 152 155 162 164 162 162 161 161 162 162 163 163 160 158 153 156 153 149 143 137 128 114 102 97
112 79 251 239 233 260 209 160 179 109 120 135 177 184 162 139 140 138 139 140 153 156 153 154 151 147 147 155 167 164 164 166 166 168 170 162 134 125 140 161 172 165 162 158 148 131 115 97 78
117 172 236 226 222 252 258 208 180 144 150 183 126 104 131 143 152 157 163 166 167 166 161 157 152 148 150 162 151 142 146 148 140 136 140 120 115 123 138 182 179 172 166 157 143 116 86 79 61
175 211 246 257 239 234 240 223 170 155 205 212 193 162 151 155 162 168 173 171 168 164 161 155 153 150 151 144 137 127 117 119 122 127 122 115 107 100 94 80 85 67 97 61 61 59 54 68 78
203 244 243 271 267 239 219 184 167 186 223 212 169 153 155 164 171 174 172 168 162 162 161 158 156 152 150 142 141 134 129 132 135 136 136 128 122 119 114 101 77 57 56 72 61 56 53 61 69
228 263 260 254 271 250 201 180 172 220 164 114 131 145 159 166 166 165 160 158 158 161 165 162 158 159 152 143 148 144 141 144 142 136 141 141 139 139 128 116 96 79 76 94 85 63 60 63 62
263 277 287 282 271 230 150 149 127 216 125 126 140 154 164 168 166 163 161 167 172 171 172 167 165 162 150 149 145 145 145 140 135 139 143 142 140 140 137 128 117 107 106 114 104 92 85 73 70
307 320 323 319 317 259 118 356 220 175 137 137 147 153 161 167 169 175 176 176 176 174 173 168 166 157 156 155 155 147 143 141 140 140 141 141 141 142 138 130 126 131 126 111 94 80 73 75 72
4 16 335 309 328 305 140 261 245 158 149 151 155 158 166 175 183 182 178 177 176 173 171 171 173 159 162 160 152 140 142 141 137 136 139 143 144 143 134 130 133 131 119 112 106 85 77 66 69
24 357 307 307 321 353 205 254 238 164 157 158 163 165 172 176 186 185 181 177 176 176 172 168 164 160 164 158 145 136 136 134 132 132 134 139 139 140 135 132 128 125 114 105 107 77 87 85 76
305 312 299 296 299 331 281 263 247 169 163 168 168 168 177 188 194 184 176 172 170 166 164 163 157 156 150 138 123 116 114 116 118 128 134 134 134 136 130 123 121 123 114 101 95 93 74 77 80
252 268 281 281 292 300 278 278 257 172 174 177 178 179 188 196 180 165 168 167 162 162 160 159 155 157 150 143 143 141 145 137 126 132 138 137 135 136 130 124 119 122 120 125 123 105 87 64 54
245 278 283 295 344 25 324 306 254 188 201 193 189 190 191 181 173 177 177 170 173 173 168 160 162 161 164 159 149 140 129 126 121 119 121 135 137 142 139 135 134 131 119 111 113 118 108 71 50
283 243 259 275 326 22 5 323 292 285 183 187 190 193 195 188 184 183 184 187 180 179 176 170 166 164 161 146 126 112 92 84 97 117 126 141 146 142 136 141 138 139 133 134 132 131 130 126 65
273 255 240 265 356 313 9 296 289 248 249 215 206 199 202 196 184 182 183 183 185 181 170 167 164 160 158 151 152 154 155 158 172 159 149 141 140 140 141 142 140 141 138 139 141 129 130 132 131
227 338 68 66 118 351 1 245 289 296 244 231 218 207 202 195 187 185 184 184 183 173 167 168 165 163 164 162 163 162 155 150 137 135 140 139 126 137 145 145 142 143 144 145 136 129 130 130 144
167 68 52 51 64 334 293 204 280 241 228 228 212 203 197 193 188 182 173 166 171 167 167 165 164 167 168 166 167 166 159 151 146 152 154 150 140 145 158 152 151 151 151 154 151 144 138 133 136
121 92 22 353 2 265 271 239 253 246 223 212 208 203 195 190 182 174 169 170 173 172 176 174 171 171 171 170 173 170 165 163 165 167 168 163 167 185 189 170 167 167 171 164 152 150 150 150 150
176 146 161 205 233 278 301 247 256 251 240 223 204 188 181 185 183 180 179 177 177 176 176 171 174 176 174 175 175 167 166 167 171 173 170 177 185 191 182 181 183 182 176 171 162 159 169 166 168
145 172 162 136 160 278 281 283 299 245 202 179 176 172 175 179 182 182 179 177 175 176 179 175 172 173 175 175 168 168 170 172 175 175 175 180 185 184 181 184 189 190 185 179 168 178 187 177 187
148 145 111 124 153 247 286 276 256 255 223 192 185 186 180 173 178 181 181 180 179 176 171 166 168 172 170 172 174 177 176 178 175 169 179 187 191 186 181 189 193 194 193 188 181 186 192 188 199
125 123 119 124 155 166 241 267 230 223 206 190 192 188 177 175 180 183 182 179 171 162 163 168 170 166 167 173 174 173 173 175 172 181 192 193 194 192 195 196 196 198 200 196 195 203 195 200 209
175 174 152 160 210 183 188 263 265 216 198 179 180 177 172 173 176 174 173 167 166 169 171 174 175 175 175 171 169 173 169 171 178 191 196 193 199 201 202 198 200 206 206 200 202 212 208 209 216